Theta_e
330 330 330 331 331 328 328 327 323 321 323 323 321 321 321 318 316 316 320 322 322 320 319 319 318 320 325 327 326 325 324 323 322 320 319 319 321 321 322 320 318 317 316 314 312 309 307 306 306 307 307 307 306 306 306 306 305 305 305 305 305 304 305 306 308 310 310 311 311 312 311 312 312 313 314 314 314 314 315 315 314 311 307 304 303
331 331 331 331 331 331 330 329 326 323 323 323 321 322 324 324 321 320 322 325 324 323 320 318 317 318 322 325 325 325 324 322 321 319 318 318 321 322 322 321 319 319 318 316 315 313 311 309 307 306 306 307 306 306 306 306 305 305 305 305 305 305 304 305 306 308 310 311 311 311 311 311 312 313 314 314 314 314 314 315 314 311 307 304 303
330 331 331 331 331 331 331 330 329 326 324 323 323 322 323 324 325 324 324 326 325 325 324 321 319 317 319 321 322 323 323 322 320 319 318 318 320 321 322 322 320 319 319 318 317 316 314 312 310 308 306 306 306 306 306 306 305 305 305 305 305 304 304 304 305 308 309 310 311 311 311 311 312 313 314 314 314 314 315 315 314 312 307 304 303
330 330 331 331 331 330 330 330 329 328 325 324 324 323 323 324 325 325 325 325 326 325 324 324 322 320 320 320 322 321 320 320 319 318 318 320 321 322 323 323 322 320 319 319 318 317 316 315 314 312 310 308 306 305 305 305 305 305 305 305 304 304 305 304 305 307 308 310 311 311 311 311 311 313 314 314 314 314 314 315 314 312 308 305 303
330 330 330 330 330 331 331 330 329 329 328 326 325 324 324 325 325 326 325 325 326 326 325 325 324 324 323 324 324 323 322 322 320 319 319 321 321 322 324 325 323 321 320 320 319 319 318 316 316 315 313 311 309 307 306 306 305 305 305 304 304 305 304 304 304 306 307 309 310 311 311 311 311 312 314 314 314 314 314 315 315 313 309 305 303
330 329 329 329 330 330 331 331 330 330 329 328 327 326 325 326 326 326 327 326 326 326 326 326 324 325 325 325 325 325 324 324 322 323 323 323 323 323 325 325 324 323 322 321 320 320 319 318 317 317 316 314 314 312 309 307 305 305 305 304 305 304 304 304 304 305 306 309 310 311 311 311 312 313 314 314 314 314 314 314 315 313 310 305 303
330 329 328 329 329 330 330 330 330 329 329 329 329 328 327 327 328 328 328 327 327 328 328 327 325 325 325 325 325 325 325 324 323 323 324 325 325 325 325 325 325 325 324 323 322 321 320 319 319 319 318 317 317 315 313 310 307 306 305 304 304 304 304 304 304 306 306 308 310 310 312 312 312 313 314 314 314 314 314 314 314 313 310 306 303
331 329 329 329 329 330 330 330 330 330 329 328 328 328 328 328 328 329 329 329 329 329 329 328 326 325 326 326 326 326 325 324 324 322 322 324 325 326 326 326 326 327 326 326 324 323 321 320 320 321 321 321 320 318 317 315 312 309 306 305 305 304 304 303 305 311 308 307 310 310 312 312 312 313 314 314 314 314 314 314 314 314 311 308 304
331 330 329 329 329 329 330 330 330 330 329 327 326 326 328 329 329 327 327 329 329 329 329 329 328 326 326 327 327 327 326 326 325 325 323 324 324 325 326 326 326 326 327 327 326 325 324 324 323 323 323 322 322 322 320 318 316 314 310 307 305 305 305 303 305 316 314 307 310 311 311 313 312 313 314 314 314 314 314 314 314 314 311 308 305
328 329 328 327 328 329 329 330 330 330 330 328 326 326 327 329 330 326 324 327 330 330 330 330 329 327 327 328 328 326 326 326 326 326 325 323 322 322 323 324 326 326 326 327 327 327 326 326 326 325 324 323 323 323 323 321 319 318 316 312 309 306 306 304 303 316 319 310 309 311 311 313 313 313 314 314 314 314 314 314 314 314 312 309 306
323 326 327 327 326 328 329 329 329 330 330 330 329 328 327 327 327 324 323 326 329 330 330 330 330 328 328 329 328 327 326 326 326 325 324 322 322 321 321 322 324 326 326 326 327 327 327 326 327 326 325 323 323 323 323 323 321 320 319 317 315 311 308 307 302 313 320 314 308 311 312 313 313 314 314 314 314 314 314 314 314 314 312 310 307
320 321 325 328 327 327 328 328 329 330 330 331 331 331 329 326 324 322 322 323 326 328 329 330 329 328 329 330 329 328 327 327 326 324 324 323 323 322 321 319 320 323 326 327 327 327 327 327 327 326 325 324 324 324 324 324 323 322 321 319 319 317 313 310 304 310 322 318 309 310 311 314 314 314 315 314 313 313 314 314 314 314 312 310 308
317 317 319 324 325 324 326 328 329 330 330 330 331 331 329 326 323 322 322 324 326 326 328 331 330 329 330 330 330 330 329 329 328 326 325 324 324 323 323 322 320 320 323 326 328 328 328 327 327 326 326 326 326 326 325 325 325 323 323 321 320 320 319 316 308 309 321 321 314 311 310 313 315 315 315 314 313 313 313 314 314 314 312 311 308
315 314 313 317 319 319 322 326 328 329 330 331 331 331 330 328 325 325 325 326 327 327 328 330 330 329 330 330 330 330 331 330 328 327 327 326 325 324 324 324 323 321 321 323 326 328 328 327 327 327 327 327 327 327 327 326 326 325 324 322 321 321 321 320 314 309 319 324 321 319 315 312 314 315 316 314 313 313 313 314 314 314 313 311 309
309 309 308 311 314 314 315 318 321 323 326 326 326 327 329 329 328 328 328 328 328 328 328 330 331 331 331 330 330 330 331 331 329 328 327 326 326 325 324 324 324 324 322 322 323 325 328 327 327 328 328 328 328 328 328 327 327 326 325 324 323 323 321 322 319 312 318 326 325 325 322 316 313 314 315 315 313 313 313 314 314 314 313 311 309
304 305 305 307 309 309 309 311 313 316 319 320 321 323 325 325 325 325 327 327 327 327 328 329 330 331 331 331 331 331 331 331 330 329 328 326 326 326 325 324 324 324 324 323 321 322 324 326 327 328 329 329 329 329 329 328 328 326 326 325 323 324 323 322 320 313 316 325 326 326 327 321 315 313 314 315 314 313 312 314 314 314 313 311 309
304 305 305 306 306 306 306 306 307 310 313 316 318 320 321 323 322 322 322 323 324 325 326 327 328 330 331 331 331 331 331 330 330 329 329 327 327 326 325 326 325 325 326 326 324 322 323 324 326 327 328 328 329 329 328 328 328 326 326 326 324 324 323 323 322 314 313 322 327 327 328 326 320 314 313 314 315 314 313 313 314 314 313 312 310
306 306 307 306 307 306 306 306 306 306 307 309 311 313 315 318 320 321 322 323 325 326 326 327 328 330 331 331 330 330 330 330 329 329 328 328 327 327 326 326 326 326 326 327 327 326 325 325 326 327 327 328 328 328 328 327 327 326 326 326 325 324 323 324 324 319 313 319 325 328 328 328 326 319 313 314 314 315 314 313 314 314 314 313 311
306 306 306 306 306 306 306 307 307 307 307 308 309 309 310 311 313 315 318 320 322 324 325 325 327 328 330 329 330 330 330 330 330 329 329 329 329 328 328 328 327 327 327 327 328 328 328 327 327 328 328 328 328 327 327 326 326 326 326 326 326 325 323 323 325 324 319 317 320 325 327 328 328 324 317 314 315 315 315 314 314 314 314 313 311
306 305 305 304 303 303 304 305 305 305 306 306 307 307 308 309 310 311 312 314 316 318 320 322 323 324 326 327 327 329 330 330 330 329 329 329 329 329 328 328 328 328 328 328 328 328 328 328 328 328 328 328 329 329 328 327 327 326 326 326 326 326 325 325 326 325 323 321 318 320 325 328 329 328 322 317 315 316 317 315 314 315 315 314 312
307 306 305 304 303 303 303 303 303 304 304 304 305 305 306 308 309 310 311 312 312 313 314 316 318 320 322 323 324 326 327 328 328 328 328 329 329 328 328 327 327 327 328 328 328 328 329 329 329 328 329 329 329 329 329 328 328 327 327 327 327 327 327 326 327 326 324 323 321 320 323 327 329 330 328 322 317 316 317 317 315 315 315 314 313
307 307 306 305 305 305 305 304 304 304 304 304 304 304 304 305 306 307 309 311 312 313 313 313 313 315 317 319 321 322 323 323 323 323 325 326 327 327 327 327 326 326 327 327 328 329 329 329 329 329 329 329 329 329 329 328 328 328 328 328 327 327 327 326 327 327 325 324 324 323 322 324 326 329 329 324 320 317 316 318 317 315 315 315 314
308 307 306 306 306 306 306 306 305 305 305 305 304 304 304 304 304 305 306 307 308 311 313 314 313 313 313 315 317 320 321 322 322 322 322 323 324 325 325 325 325 325 326 327 328 329 329 329 329 329 329 329 328 328 328 328 328 329 328 328 328 328 328 327 327 328 327 325 324 324 323 322 323 326 328 324 321 318 317 317 318 316 315 316 315
308 307 307 306 306 306 306 306 306 305 305 305 305 304 304 304 303 303 304 304 305 305 307 309 310 311 312 312 314 317 321 322 322 323 323 323 323 324 323 323 324 324 324 325 326 328 329 329 329 329 329 328 328 328 328 328 328 329 328 327 328 328 328 328 327 327 328 327 325 324 324 323 321 322 326 326 322 320 317 317 319 318 316 316 317
308 307 307 306 306 306 306 306 305 305 305 305 305 304 304 304 304 303 303 302 303 303 303 304 304 307 309 311 311 313 317 319 321 322 322 323 323 323 323 324 325 325 325 324 325 326 328 328 328 328 328 327 326 327 327 328 328 328 328 326 326 328 329 328 328 327 327 328 326 325 325 325 322 320 323 326 325 322 318 317 318 318 318 318 318
307 307 307 306 306 306 306 305 305 305 305 305 305 305 305 305 305 304 303 302 302 302 302 302 302 303 304 306 308 310 312 315 317 318 319 320 321 322 323 323 324 325 325 325 324 324 326 326 327 327 327 327 325 325 325 326 327 327 327 327 326 327 329 329 329 328 327 327 327 326 325 326 325 322 321 324 326 324 320 317 318 318 319 319 319
308 307 307 307 306 306 305 305 305 305 305 305 305 305 305 305 305 305 304 303 302 301 301 301 301 301 301 302 304 307 309 312 313 314 316 317 319 320 321 322 323 323 323 324 325 325 325 325 325 324 324 324 324 323 323 323 324 325 325 326 326 326 328 329 329 328 327 328 328 327 326 326 325 323 321 322 325 325 322 319 317 318 319 320 320
308 307 307 306 306 306 306 305 305 304 305 305 305 305 305 305 304 304 304 304 303 302 301 301 301 300 300 300 300 303 305 308 310 311 313 314 316 317 319 320 322 322 322 322 322 323 324 325 324 323 321 321 321 320 321 321 321 323 324 325 326 326 327 328 328 328 327 328 328 327 327 326 325 324 322 321 323 325 324 320 318 318 318 319 320
308 308 307 306 306 306 306 305 304 304 304 305 305 305 305 305 304 304 304 304 303 303 302 302 301 301 301 300 300 300 302 304 306 309 310 312 313 314 316 317 319 321 322 322 320 319 320 321 321 321 320 320 320 320 320 321 322 325 326 327 327 327 327 328 328 328 328 327 328 328 327 326 326 325 323 322 322 323 323 322 319 318 318 319 320
309 308 307 306 306 306 306 305 304 304 304 304 304 304 304 304 304 303 303 303 303 303 302 302 302 302 302 302 301 301 301 302 303 305 307 310 312 313 314 315 316 318 320 322 322 319 318 318 317 318 317 317 318 320 321 324 325 326 327 327 327 327 327 328 328 327 327 328 328 328 328 327 327 325 324 323 322 321 321 321 320 318 317 318 319
309 308 307 306 306 306 305 304 304 303 304 304 304 304 304 303 304 303 303 303 303 303 303 303 302 302 302 303 303 303 303 302 302 303 304 307 310 312 314 315 316 317 318 319 320 318 317 318 317 316 316 315 315 317 319 322 324 325 326 326 327 328 328 328 328 328 327 328 328 328 328 328 328 327 325 324 322 321 320 319 319 318 317 317 319
309 309 307 306 305 305 305 304 303 303 303 303 304 303 303 303 303 303 303 303 303 303 303 303 303 303 302 302 303 303 304 304 304 304 303 304 306 309 312 315 316 317 317 318 318 317 314 316 317 317 319 318 316 314 314 315 318 322 324 323 324 326 328 328 328 328 328 328 328 327 326 327 328 328 327 325 323 322 320 319 317 317 317 317 318
309 309 308 306 305 305 305 304 303 303 303 303 303 303 303 303 302 302 302 302 302 302 303 303 303 303 303 303 302 302 303 304 305 305 305 305 305 305 307 310 313 315 317 317 317 317 315 314 316 318 320 322 321 317 314 313 315 318 321 322 322 323 325 325 326 327 328 328 328 328 327 326 326 327 327 325 324 322 321 320 317 315 316 318 318
309 310 308 305 305 305 304 303 303 303 302 302 302 302 302 302 301 301 301 301 301 301 302 302 302 302 303 303 303 302 302 303 304 304 305 306 306 306 305 306 308 311 315 316 316 317 316 314 314 317 320 322 323 322 320 318 316 316 318 321 322 321 322 323 325 326 326 327 327 327 328 327 326 326 326 324 323 323 322 320 317 314 316 317 317
310 310 307 305 305 305 304 303 302 302 302 303 303 302 302 301 301 300 300 300 300 301 301 301 302 302 302 302 302 302 302 302 302 302 303 304 306 307 307 306 306 306 310 313 314 315 316 315 314 316 318 320 320 321 321 319 318 318 318 320 321 321 320 322 324 325 325 324 324 326 328 327 326 325 325 323 323 322 322 321 318 313 314 317 318
311 309 306 304 304 304 303 303 302 303 303 303 303 303 303 301 300 300 300 300 300 300 300 301 301 300 300 301 301 302 302 302 302 303 303 304 306 307 308 308 307 305 306 310 312 314 315 316 315 316 317 318 318 318 319 320 320 320 320 319 320 320 319 320 322 324 324 323 323 325 327 327 327 326 325 324 323 322 322 322 319 313 312 316 318
311 308 305 304 304 304 303 302 303 303 304 304 304 304 303 301 300 299 299 299 299 299 299 300 300 300 299 299 300 301 302 302 302 303 303 304 305 307 307 308 309 308 306 307 309 311 313 315 316 316 317 317 316 315 317 319 321 322 321 319 318 318 317 317 319 321 324 324 324 326 327 326 327 326 325 325 324 323 321 322 320 314 312 314 317
309 306 305 305 304 303 302 303 303 304 305 305 304 303 302 300 300 299 299 298 298 297 297 298 299 299 299 299 300 300 301 301 302 303 303 303 303 304 306 306 307 308 308 307 307 308 311 313 315 316 316 317 316 314 313 316 320 322 322 321 320 317 315 316 316 319 322 323 323 324 326 326 326 326 326 326 326 324 322 322 321 316 312 313 316
307 306 305 304 303 303 303 303 304 305 305 304 303 301 300 300 299 299 298 298 297 297 296 296 297 298 298 299 299 299 299 300 300 301 302 302 302 302 303 304 305 305 306 307 307 306 307 310 313 315 316 316 316 316 314 315 318 321 321 322 321 320 318 317 316 318 320 321 321 321 323 324 324 325 326 326 326 325 323 322 322 318 315 314 315
306 306 305 304 303 303 303 304 304 305 304 302 301 300 300 300 299 299 298 298 298 297 296 295 296 297 298 299 299 298 298 298 298 299 300 300 301 301 301 302 302 303 303 304 305 306 306 307 309 312 314 315 316 317 316 316 318 319 320 321 322 322 320 318 318 319 320 320 320 320 321 322 323 324 326 326 326 325 323 322 323 321 318 316 316
306 305 304 304 303 303 304 304 304 303 302 301 300 300 300 300 299 299 298 298 298 297 296 295 296 297 298 298 298 298 298 298 298 298 298 299 299 300 301 301 301 301 301 302 303 303 304 305 306 308 311 314 315 316 317 317 317 318 318 319 320 321 322 321 320 320 320 320 321 321 321 321 322 323 325 325 326 325 324 323 323 323 321 320 319
305 304 303 303 303 303 303 303 303 302 301 300 300 300 300 299 299 298 298 297 297 296 296 295 296 297 298 298 298 298 298 298 298 298 298 298 298 298 299 300 300 300 300 301 301 301 302 303 305 306 308 310 313 314 316 316 317 317 318 317 319 320 321 322 321 320 320 320 321 321 322 322 322 323 323 324 325 325 324 323 323 324 324 323 322
304 303 303 303 303 303 302 302 301 301 300 300 300 300 299 298 298 297 296 296 296 295 295 295 295 297 298 298 298 299 299 299 298 298 298 298 298 298 298 298 298 298 299 300 300 301 301 301 303 304 305 307 309 311 313 314 315 316 317 317 317 318 319 320 320 319 319 320 320 321 321 321 322 322 322 322 323 324 324 323 323 324 324 324 323
303 303 303 303 303 303 302 302 301 301 301 300 299 298 297 296 295 295 295 295 295 295 295 295 296 297 298 298 299 299 299 299 299 298 298 298 298 298 298 298 298 297 297 298 299 300 300 301 302 303 304 305 307 308 309 311 312 314 315 316 317 317 317 318 318 318 318 319 319 320 320 321 321 322 322 322 322 323 324 324 323 323 324 324 323
303 304 304 304 304 303 302 302 301 301 299 298 296 295 295 295 295 296 296 296 296 296 296 297 298 298 299 299 299 299 299 299 298 298 297 298 298 298 299 299 299 298 298 297 297 298 299 300 301 302 303 304 306 307 307 307 309 310 311 313 314 315 316 316 317 316 316 317 318 319 319 320 320 321 322 322 322 322 323 323 323 323 323 322 322
305 305 305 304 304 303 302 301 300 298 296 294 294 294 294 294 294 295 295 296 296 296 297 297 297 298 298 298 299 298 298 298 297 297 296 296 297 297 298 298 299 299 299 298 297 297 298 299 300 301 302 303 304 306 306 306 307 307 308 309 310 311 313 314 315 315 316 316 317 318 319 319 320 320 321 321 321 321 322 322 323 322 322 321 321
306 306 305 305 304 303 301 299 297 295 293 293 293 293 293 293 293 294 294 295 295 296 296 296 297 297 297 297 298 298 298 297 296 296 295 295 295 296 296 297 298 299 299 299 298 297 297 298 298 300 301 302 302 304 304 305 306 307 307 308 308 309 310 311 312 314 315 315 316 317 318 318 317 318 319 320 320 320 321 321 321 321 321 321 320
306 306 305 305 303 301 298 296 295 294 294 293 293 292 292 293 293 293 294 294 295 295 296 296 296 296 296 296 296 296 296 296 296 295 294 294 294 294 295 295 296 297 298 298 298 297 297 297 298 298 299 300 301 302 302 303 305 307 307 308 308 309 309 310 311 312 313 314 315 316 316 316 315 315 317 318 318 319 319 319 320 320 320 320 319
306 306 304 302 300 298 296 296 296 295 295 293 292 292 292 293 293 293 293 293 294 295 295 296 296 296 296 295 295 295 295 295 295 295 294 294 294 294 294 294 294 295 296 296 297 297 297 297 297 298 298 299 300 301 302 302 304 306 306 307 308 308 309 310 310 310 311 312 313 314 315 315 314 314 315 316 317 317 318 318 318 318 318 318 317
306 303 300 298 297 297 297 297 297 296 295 293 292 292 292 293 293 292 292 292 293 294 295 295 295 295 295 295 294 294 294 294 294 294 294 293 293 293 293 293 293 294 294 294 295 296 295 295 296 297 297 297 298 299 301 302 303 304 305 306 307 307 308 309 310 310 310 311 312 313 314 314 314 313 314 315 315 316 316 317 317 316 316 317 316
302 299 298 297 298 298 297 297 297 296 294 293 292 293 293 293 293 292 291 292 293 294 294 294 295 295 295 294 294 294 294 294 294 294 293 293 293 293 293 292 292 293 293 293 293 294 294 294 294 295 296 297 297 298 299 300 301 303 304 305 306 307 308 309 309 310 311 311 311 312 313 313 312 312 313 313 314 314 315 315 316 315 315 315 314
Wind_Speed
8 8 9 11 13 14 13 11 9 8 7 5 4 6 8 10 12 15 17 19 20 18 18 18 20 24 24 21 18 17 16 14 13 12 11 10 9 7 7 7 6 6 6 6 5 6 6 6 7 8 9 11 11 11 10 9 8 7 6 6 3 2 2 2 2 2 2 2 2 2 3 4 5 6 7 8 10 13 15 17 18 19 19 18 17
8 8 9 10 11 13 13 12 11 9 8 8 8 8 8 9 12 14 16 16 17 16 16 16 18 22 24 22 19 18 17 15 15 15 14 13 11 10 9 8 7 6 6 6 7 6 7 6 6 8 9 11 11 11 11 10 10 9 8 7 5 3 3 3 3 3 3 3 3 2 3 3 4 5 6 7 9 11 14 16 18 19 18 17 16
9 8 9 10 11 12 12 13 12 10 9 9 11 11 10 9 9 11 13 13 13 13 14 15 17 19 21 22 20 20 19 17 17 17 16 15 14 12 11 10 9 8 8 7 7 7 7 7 7 8 9 10 12 12 12 11 10 10 9 8 6 4 4 4 4 4 4 4 4 3 3 3 3 4 5 7 8 10 13 15 17 18 18 16 15
11 10 10 10 12 13 13 13 12 11 10 10 12 13 13 11 10 11 11 12 11 11 11 13 15 16 18 19 19 18 17 16 17 17 17 17 15 14 13 12 11 11 10 10 9 8 9 9 8 9 10 11 12 13 13 13 12 11 11 10 8 6 5 5 5 5 5 5 5 4 4 4 3 4 5 6 7 9 11 14 16 17 17 16 15
13 12 11 10 11 14 14 13 12 11 10 11 13 14 14 13 13 12 12 12 12 12 11 12 13 14 15 15 16 15 13 14 14 15 15 15 14 13 13 13 13 12 13 12 11 11 10 10 9 10 11 12 12 14 14 14 13 12 12 12 10 8 7 6 6 6 6 6 6 5 4 4 4 4 4 5 6 8 10 12 14 16 16 15 14
14 13 12 10 10 12 13 13 12 11 12 13 14 15 15 15 14 13 13 13 13 13 12 12 13 14 14 13 14 13 12 12 12 12 13 13 13 13 14 14 14 14 14 13 13 12 12 12 11 11 11 12 12 14 14 14 15 14 13 13 12 10 9 8 7 8 7 7 7 6 5 5 4 4 3 4 5 7 9 11 13 15 15 14 14
15 14 14 12 11 11 12 12 11 11 12 13 14 16 17 17 16 15 14 14 14 14 14 14 15 15 15 13 13 12 12 12 12 11 11 12 12 14 15 15 15 15 15 14 14 14 14 14 13 12 12 12 12 13 13 14 15 15 14 14 14 12 11 10 9 9 9 8 8 7 6 5 4 4 3 3 4 6 8 10 12 13 14 14 13
16 14 13 13 12 12 12 12 12 12 12 13 14 16 18 17 16 14 15 16 17 18 17 17 17 17 16 15 14 13 13 13 12 12 12 12 12 13 13 15 16 16 16 15 15 14 14 14 13 12 12 12 11 11 11 12 13 15 15 14 15 15 13 12 10 9 10 10 9 8 7 6 5 4 4 3 3 5 6 8 10 12 13 13 12
16 14 13 13 13 12 12 12 13 13 12 13 14 16 17 17 14 12 14 17 18 19 19 19 19 17 16 15 14 14 14 14 14 14 14 14 14 14 14 14 15 17 18 16 15 14 14 13 12 11 11 11 10 9 10 10 11 13 14 13 13 15 15 14 11 9 11 11 10 9 8 7 6 5 4 3 2 3 5 7 9 11 12 12 12
14 13 12 12 12 12 12 12 12 13 13 13 15 15 15 15 15 13 13 14 15 17 18 18 18 18 17 15 14 14 14 14 15 16 16 15 15 15 15 15 15 16 18 17 15 14 13 13 12 12 11 11 10 9 10 10 10 11 13 14 13 14 15 15 13 10 11 13 12 11 9 8 7 6 5 3 2 3 3 5 8 9 11 11 11
11 13 13 12 12 12 12 12 12 13 14 14 15 16 15 15 16 14 11 11 13 17 19 17 17 18 18 17 15 14 13 12 13 15 15 14 13 13 14 15 16 16 17 18 17 16 15 14 14 13 12 11 11 10 10 11 11 11 12 14 14 14 13 15 15 12 12 13 13 12 11 9 8 7 5 4 3 3 3 4 6 8 9 10 10
9 12 14 13 13 13 12 13 14 14 14 14 14 15 16 17 17 15 12 10 13 18 20 18 18 19 19 19 18 16 14 13 14 14 14 14 13 14 14 14 15 16 17 17 18 17 16 16 16 15 13 12 12 12 11 12 13 13 13 14 15 14 12 13 14 13 13 13 13 13 12 10 9 8 7 5 4 3 3 4 5 7 8 9 9
10 11 13 13 13 13 13 14 15 15 15 15 14 14 16 18 19 17 13 13 15 18 19 18 18 20 21 21 21 20 18 17 17 17 15 15 15 16 16 15 15 16 16 17 18 18 18 17 16 16 15 14 14 14 14 14 15 15 15 15 15 13 13 13 13 13 14 14 13 13 12 11 10 9 8 6 5 5 4 4 5 6 7 8 8
12 12 12 12 11 12 13 13 14 15 15 15 15 14 16 19 20 19 17 17 17 17 18 19 19 21 20 20 22 21 22 22 20 19 18 17 17 18 18 18 18 16 16 17 18 18 19 18 17 17 16 17 17 16 17 17 17 17 16 16 15 13 13 15 14 12 14 16 15 14 12 12 12 10 9 7 6 6 5 4 5 5 6 7 7
12 13 12 10 10 11 12 13 14 14 15 15 14 14 16 18 20 20 19 19 18 16 17 19 21 21 19 18 20 20 21 24 24 21 19 19 19 19 19 19 19 17 17 19 19 19 19 19 19 18 18 18 18 19 19 19 19 19 18 17 16 14 12 14 16 14 15 18 19 17 14 13 14 12 10 9 8 7 6 6 6 6 6 6 6
8 10 10 9 9 9 10 11 11 12 13 14 13 13 13 14 16 17 17 18 18 18 18 19 21 20 19 17 17 17 18 21 22 22 20 20 20 20 19 19 18 18 18 19 20 20 20 20 20 19 19 20 20 21 21 21 21 20 19 18 16 15 13 12 13 15 18 19 19 19 16 13 14 14 12 11 9 8 8 7 6 6 6 6 6
2 4 6 6 6 8 9 10 10 9 10 10 11 11 9 8 11 13 14 15 16 17 17 19 20 20 20 18 14 14 15 17 18 19 19 20 20 19 19 19 18 18 19 19 19 20 21 21 20 20 20 21 22 22 22 22 21 21 20 18 17 16 14 11 10 13 20 21 19 20 20 16 15 16 15 13 11 10 9 9 8 7 6 6 6
5 3 2 2 4 5 6 8 8 8 8 8 8 8 8 7 8 9 10 11 11 12 12 14 17 18 20 20 18 16 13 12 14 15 17 19 19 19 20 20 20 20 20 20 21 21 21 21 21 21 21 21 22 23 24 23 22 21 21 19 17 16 15 11 10 9 16 22 21 20 22 21 18 17 16 15 13 12 11 10 9 7 7 6 6
9 8 7 7 6 5 5 5 5 6 6 6 6 6 6 6 7 8 9 9 10 10 9 9 12 14 15 15 18 22 18 13 13 14 15 17 18 18 19 20 21 22 22 22 22 23 23 22 21 21 21 22 22 22 23 23 22 22 21 20 18 17 15 12 11 9 11 18 22 22 23 24 22 18 17 16 16 14 12 11 10 8 8 7 6
10 10 10 9 9 8 6 5 4 4 4 5 5 5 5 6 6 7 8 9 10 11 10 9 9 10 11 10 12 19 22 20 18 17 15 16 17 16 16 17 19 20 21 22 23 24 25 24 23 23 23 23 23 23 23 23 22 22 22 21 19 18 16 14 13 11 9 13 20 23 23 25 25 22 18 17 18 16 14 12 11 10 8 7 6
8 9 9 9 9 9 8 7 6 4 2 1 2 3 4 5 6 7 7 8 10 11 11 11 11 10 10 10 10 13 17 18 19 18 16 17 21 21 21 21 21 22 21 21 23 24 25 26 26 25 25 24 24 24 24 24 24 24 23 22 20 18 17 16 15 14 11 11 16 21 22 24 27 26 22 19 19 18 16 14 12 11 9 8 7
6 7 7 8 7 7 7 6 6 5 4 2 0 1 2 4 5 6 8 9 10 11 12 12 14 13 12 12 11 11 13 13 15 16 16 17 21 24 25 25 26 26 25 23 23 25 25 26 26 26 25 24 24 24 24 24 24 24 24 24 22 20 18 17 16 16 14 12 14 18 21 23 26 27 24 21 20 19 18 16 14 12 10 9 7
5 5 5 5 5 5 4 4 4 3 2 1 0 2 3 4 6 7 8 10 11 12 13 14 14 15 15 15 14 12 11 11 12 13 14 16 19 22 24 24 25 27 27 26 26 26 25 24 25 26 25 24 24 24 24 23 23 22 23 23 24 22 20 19 17 17 17 14 14 16 18 21 25 27 25 22 20 20 19 18 15 13 11 10 8
4 4 4 3 3 3 2 3 3 2 1 2 3 3 4 5 7 9 10 12 13 13 14 14 15 16 16 16 16 15 13 12 12 12 13 16 18 21 24 25 26 27 27 26 26 27 26 23 22 23 22 22 23 24 25 24 22 21 21 23 24 24 23 21 19 18 18 17 15 15 16 18 22 26 26 23 20 20 20 19 17 15 13 11 10
3 3 3 3 2 1 1 2 2 2 2 3 4 5 5 6 6 7 9 12 15 17 16 16 16 16 16 17 18 18 17 16 15 14 14 15 16 18 22 23 24 27 27 26 26 27 28 28 26 25 23 22 23 24 26 26 25 23 22 24 26 25 24 23 22 20 19 18 17 16 17 19 20 22 26 26 22 20 21 21 19 18 15 13 12
4 4 3 2 1 0 2 3 4 4 4 4 5 6 7 7 8 7 8 9 12 16 18 19 18 18 18 18 19 19 20 20 19 18 17 16 16 17 19 21 22 24 25 26 26 27 28 31 32 31 29 29 29 28 29 30 29 28 27 28 29 27 24 23 23 22 21 20 18 18 19 20 21 22 24 27 26 21 21 23 21 19 18 15 14
6 5 4 2 1 2 3 4 5 4 4 5 6 7 9 10 11 10 9 8 9 12 16 18 20 20 20 20 20 20 21 21 22 22 20 19 18 17 19 20 22 23 24 25 26 27 27 27 29 31 32 33 32 31 32 33 33 34 35 34 31 29 26 23 23 23 23 22 20 20 20 21 23 24 23 26 29 26 22 23 23 21 20 18 16
8 7 5 3 3 4 5 5 6 5 5 6 7 9 10 12 12 13 12 11 9 9 12 15 18 20 20 21 21 21 22 22 22 23 23 22 22 21 20 19 20 23 24 25 27 27 26 26 27 28 29 29 29 28 28 30 31 32 32 31 30 29 27 24 23 23 24 24 23 21 21 21 22 24 23 24 29 29 24 22 23 23 22 21 18
10 9 7 6 6 6 7 8 8 7 7 8 9 11 12 13 13 14 13 12 11 10 10 12 14 17 19 20 22 23 23 23 23 23 24 24 24 24 24 22 20 22 23 27 30 30 29 29 29 27 25 24 24 24 25 25 25 24 25 27 27 27 27 25 23 23 24 25 25 23 22 22 22 23 24 24 27 29 27 25 25 24 24 23 20
11 11 9 8 8 8 9 10 10 9 9 9 11 12 13 14 15 15 15 14 13 12 12 11 12 14 17 19 21 22 23 24 25 25 24 24 24 24 24 24 23 22 21 25 30 32 31 32 31 30 27 25 23 23 24 23 21 20 21 25 26 26 27 26 25 24 24 25 26 25 24 24 24 24 24 25 26 27 27 27 27 26 26 25 23
13 12 10 9 9 10 10 11 11 10 9 10 11 13 14 15 16 17 17 16 15 14 13 13 13 13 15 17 19 21 23 24 25 26 26 26 26 25 25 24 24 23 22 23 28 32 32 32 32 31 31 30 28 26 26 25 23 23 24 25 24 25 27 29 28 27 26 26 25 24 24 26 27 25 25 25 27 26 25 26 29 29 28 27 24
14 13 11 11 11 11 12 13 12 11 9 10 11 14 15 17 18 19 19 19 18 17 16 15 15 15 16 16 18 20 22 23 24 25 26 27 28 29 28 27 26 25 24 24 27 32 34 33 32 32 31 31 30 28 28 28 27 26 27 27 25 24 26 28 30 29 28 27 27 24 22 24 27 27 26 26 27 28 26 25 28 31 30 28 26
15 14 13 12 12 13 14 14 14 12 10 10 12 15 17 19 20 21 21 21 21 21 20 19 17 17 17 18 19 20 21 23 25 25 26 27 28 30 31 31 30 28 26 26 26 29 33 34 33 32 29 27 28 29 29 29 28 27 27 28 27 27 27 28 30 33 33 34 32 27 23 22 24 27 28 27 28 30 29 27 27 30 31 30 27
15 14 14 14 13 14 15 15 15 13 11 12 14 17 19 20 21 22 22 23 23 23 23 23 22 20 19 19 20 21 22 23 25 26 27 28 28 29 30 31 33 33 30 28 27 28 32 35 34 31 28 25 25 28 28 28 27 27 27 26 26 28 29 29 30 31 32 34 33 29 25 24 25 27 28 28 29 31 31 29 27 29 32 31 29
16 15 15 14 14 15 15 15 15 13 12 13 16 18 20 22 23 23 23 23 23 24 24 25 25 24 23 21 20 21 22 24 25 26 28 28 29 29 29 29 31 34 34 31 29 27 30 35 35 33 30 26 25 25 26 27 26 26 26 26 25 27 29 30 30 26 24 26 28 27 28 28 26 27 28 28 30 33 33 30 28 28 31 33 30
17 16 16 15 15 16 15 14 13 12 13 15 17 20 22 23 24 23 23 23 24 25 25 25 26 26 26 24 22 21 22 23 24 25 26 27 28 29 30 29 28 30 33 34 32 29 28 32 35 34 32 31 28 26 25 26 27 26 25 26 26 26 27 30 31 27 23 24 26 28 30 30 28 27 28 28 29 32 33 32 29 28 31 32 31
17 17 16 16 16 16 14 13 12 12 14 16 18 21 23 24 24 23 24 24 25 26 26 26 26 26 26 26 24 22 22 22 22 23 24 24 25 27 28 29 28 27 30 32 33 33 31 32 36 36 33 32 31 29 26 26 26 26 26 26 26 27 27 28 29 28 25 25 26 28 28 29 28 28 28 29 30 31 33 32 30 28 30 32 31
18 17 16 16 16 14 12 11 12 13 15 18 20 22 23 23 23 23 24 25 25 26 26 26 26 26 25 25 24 23 22 22 22 23 23 24 24 24 25 26 26 26 27 28 31 33 34 35 37 38 36 34 32 32 30 27 25 25 26 27 27 27 27 27 27 28 27 26 27 27 26 26 27 28 29 30 31 30 32 32 30 29 30 32 32
17 17 16 15 14 12 11 11 12 15 17 19 21 22 23 23 24 25 26 26 26 26 26 27 27 27 26 25 24 24 23 23 23 23 24 24 25 25 24 24 25 25 26 26 27 30 33 36 38 39 38 36 33 31 31 28 25 23 24 28 30 29 27 26 25 25 26 28 29 29 28 28 28 29 30 32 32 31 32 33 32 30 31 33 34
17 16 15 13 12 10 11 12 14 17 19 20 21 21 22 24 26 28 29 29 29 28 28 28 27 27 26 26 26 26 25 25 25 25 25 25 26 27 27 27 27 28 28 28 27 28 30 33 38 40 40 39 36 32 30 29 26 21 20 23 28 30 29 27 25 24 25 26 28 29 29 30 30 31 32 33 35 35 34 35 35 34 32 33 34
16 15 13 11 11 11 12 14 17 18 19 19 19 21 23 26 28 30 31 32 32 31 31 30 28 27 27 27 27 27 27 26 26 26 27 27 27 29 29 29 30 31 31 31 31 30 30 31 34 38 41 41 39 35 33 32 30 26 23 23 24 27 30 30 27 25 25 26 26 28 28 29 31 32 32 34 36 37 38 40 40 39 37 35 34
14 12 12 12 12 13 14 16 18 18 18 18 20 22 24 27 30 32 33 33 33 33 33 32 31 30 29 29 29 29 29 28 28 28 28 29 29 30 31 31 30 30 31 32 32 32 32 32 33 35 38 42 42 39 37 35 33 32 30 28 26 26 30 31 27 24 24 25 26 28 29 29 31 32 33 34 36 38 42 44 43 44 43 39 35
13 13 13 14 14 15 15 16 17 17 17 19 22 25 28 30 32 33 34 35 35 35 34 34 34 33 33 33 32 32 32 31 31 31 30 31 31 32 33 33 33 32 31 31 32 32 32 33 34 33 35 40 42 41 40 39 36 35 33 31 28 26 26 26 24 22 22 22 25 27 27 28 31 33 34 34 34 37 42 45 46 46 46 43 39
15 15 15 15 15 15 15 15 15 17 19 22 25 27 29 30 31 32 33 35 36 36 36 36 36 36 36 36 36 36 35 35 34 34 33 33 33 33 34 34 35 35 34 34 34 33 33 34 35 36 36 38 40 41 40 39 39 38 36 33 30 28 26 24 23 22 21 22 24 26 26 26 28 32 33 33 32 33 36 41 47 49 49 48 44
16 16 15 15 15 14 14 14 16 18 20 22 23 23 24 26 27 29 31 32 34 35 35 36 37 37 38 39 40 40 39 38 37 36 36 35 35 35 35 35 36 36 36 36 35 34 33 34 37 39 38 37 39 41 39 37 37 37 37 37 35 33 30 28 27 25 25 25 26 26 27 26 26 29 31 30 31 32 33 36 41 46 50 50 46
16 16 15 14 14 13 14 15 17 18 18 18 18 19 22 24 26 28 30 31 33 34 35 36 37 38 38 39 41 42 41 41 39 38 37 36 36 37 38 38 37 36 36 37 37 36 35 34 36 39 39 38 39 41 38 34 33 34 35 37 37 37 35 33 31 28 27 26 26 28 29 27 26 27 28 28 29 31 31 33 35 39 45 47 48
16 15 14 14 13 13 14 15 15 14 14 16 18 21 23 25 27 29 30 32 33 34 35 35 36 37 38 39 41 42 42 42 40 38 36 36 37 39 40 41 40 38 37 36 36 37 37 36 36 37 38 38 39 40 38 32 30 31 31 32 34 34 34 34 34 32 30 28 27 29 30 27 25 26 26 26 29 30 30 32 33 36 39 43 48
16 15 13 13 13 13 14 13 13 14 16 19 21 22 25 27 30 32 33 34 35 35 36 36 36 37 37 38 40 41 42 42 40 37 36 36 38 40 41 42 42 42 41 38 36 37 38 39 40 39 38 37 35 36 36 34 32 30 28 29 31 30 31 34 36 37 35 32 30 30 30 29 27 26 25 27 29 30 30 31 32 34 36 40 46
15 14 12 11 11 12 13 13 15 18 21 22 22 24 27 30 33 36 37 38 38 38 38 38 37 38 38 38 39 40 41 40 39 38 36 36 38 40 41 43 44 45 45 42 39 38 38 39 41 42 41 40 38 37 37 38 37 32 29 30 31 29 30 34 37 39 39 37 35 33 31 31 30 28 27 28 29 29 30 30 31 32 33 37 41
13 12 10 9 10 12 13 15 18 22 24 24 24 26 29 32 36 39 40 41 41 40 40 40 39 39 39 39 39 39 40 41 39 39 38 38 40 41 42 44 45 47 46 43 41 41 38 38 39 40 40 41 41 41 41 42 42 38 34 34 32 30 32 35 36 37 39 39 38 35 34 34 33 30 29 29 30 30 30 30 30 31 31 33 37
10 9 9 9 10 12 14 16 20 23 25 25 25 28 31 34 38 41 42 43 43 42 41 41 41 41 40 40 39 39 40 41 40 41 41 40 42 43 43 44 46 48 46 42 42 41 39 38 37 37 38 39 39 39 40 41 42 43 41 38 33 31 34 37 36 37 39 40 38 35 36 36 34 32 31 31 30 30 30 30 30 29 30 31 34
Wind_Direction
217 209 208 209 209 204 207 212 205 197 178 153 147 144 129 131 149 160 162 161 160 163 169 176 187 194 200 204 206 212 216 219 226 235 241 248 256 266 276 279 279 279 281 284 280 267 263 259 256 252 249 252 254 258 258 257 260 265 266 267 276 269 250 263 264 264 267 291 323 352 9 17 25 22 19 20 17 14 12 8 6 9 12 15 21
222 215 210 204 205 204 208 214 211 207 189 168 160 161 153 139 143 156 160 159 158 158 161 167 178 189 199 207 211 217 223 230 237 241 245 249 252 257 266 276 278 281 284 285 289 286 277 274 275 269 259 255 255 257 259 259 258 261 266 266 270 265 249 253 253 259 263 273 294 321 346 3 14 16 18 21 19 15 12 8 6 7 11 15 19
234 227 218 208 206 206 208 212 211 209 202 180 169 172 177 174 162 162 167 167 164 162 162 165 172 180 192 203 211 219 226 235 242 246 249 250 251 252 256 266 271 275 281 282 285 289 286 285 290 288 278 270 265 261 259 258 256 258 264 265 267 264 253 251 246 249 255 263 277 296 320 339 356 7 15 21 20 15 12 8 6 6 9 14 19
241 235 228 216 210 211 210 212 210 205 204 189 178 180 183 186 182 177 179 182 182 178 173 173 175 179 187 196 205 213 220 229 240 246 251 253 253 255 255 260 265 269 273 276 280 283 285 286 293 294 289 286 279 273 267 261 256 255 261 263 264 263 257 250 242 243 247 254 266 279 298 316 336 352 8 19 19 15 13 9 6 5 8 13 18
243 240 235 221 210 211 212 214 214 210 207 196 188 189 191 191 186 184 188 194 199 197 192 186 181 183 190 195 202 212 218 226 238 243 247 251 255 258 258 259 263 267 270 273 277 280 283 285 290 295 293 293 289 285 279 271 263 255 256 261 264 262 258 253 243 240 243 247 256 267 282 297 317 334 358 15 17 15 13 9 6 4 6 11 17
243 241 238 226 213 212 212 215 218 218 218 210 198 196 199 200 196 195 200 206 212 214 214 206 192 188 192 197 206 215 224 230 238 240 242 248 254 256 257 260 262 265 268 271 275 278 283 285 292 299 299 299 298 295 291 283 274 261 252 254 259 260 255 253 244 234 237 242 248 256 270 282 300 316 341 7 13 15 12 8 5 3 5 10 15
244 243 240 233 222 217 214 213 213 216 224 221 211 206 204 205 207 211 215 216 221 228 232 225 210 201 199 203 210 217 228 236 239 242 242 241 246 250 253 258 261 261 263 266 272 277 280 284 293 303 305 304 303 301 298 293 286 275 264 255 255 256 252 252 246 232 228 235 243 247 258 270 284 303 324 357 7 12 11 5 3 2 3 7 14
243 241 239 236 231 224 217 212 214 218 221 223 221 215 212 212 215 223 226 224 230 238 239 235 224 212 208 211 215 223 235 245 248 253 254 247 243 244 247 254 257 258 259 261 266 271 276 281 289 299 302 305 309 308 302 296 291 286 279 269 262 257 251 249 246 232 224 228 236 241 249 260 272 287 305 336 356 6 8 3 360 0 1 3 10
241 240 235 236 235 229 224 219 223 226 221 224 230 224 220 219 219 229 237 229 230 240 238 234 229 218 216 219 220 229 241 251 257 263 264 259 252 249 251 254 254 253 253 256 261 265 271 277 285 292 296 303 313 320 314 305 298 292 286 279 269 262 257 251 246 234 226 227 231 238 242 250 263 273 284 309 338 354 2 359 356 356 358 1 6
233 237 234 232 235 231 228 223 225 230 226 227 232 232 227 224 221 227 242 234 227 237 239 235 230 221 220 224 229 237 245 253 261 266 267 267 264 260 260 259 254 251 250 253 257 261 266 272 277 283 290 299 310 321 325 319 312 305 296 288 279 270 263 256 250 239 231 230 228 234 240 241 252 264 270 281 304 329 347 351 351 351 354 359 2
222 229 232 230 230 227 225 223 222 223 225 227 229 231 227 224 225 225 232 234 231 236 238 239 233 224 224 227 233 243 247 252 259 262 265 268 270 269 267 263 256 251 251 252 255 258 261 266 271 277 285 294 303 313 320 323 321 317 308 298 289 279 269 261 256 245 238 239 232 230 236 239 245 253 260 264 272 295 320 337 344 344 348 355 358
229 228 229 229 229 227 223 221 222 219 220 226 227 225 222 220 224 228 230 233 234 235 238 242 232 224 229 230 233 242 246 250 254 256 260 264 267 269 271 270 264 254 250 252 256 258 258 261 266 272 279 287 296 303 310 315 317 319 315 306 295 282 271 262 257 246 241 250 247 238 234 234 241 247 250 253 256 267 290 315 331 334 340 349 353
248 241 233 230 230 231 225 216 216 220 221 226 227 222 219 220 225 233 241 240 239 240 247 255 241 228 231 233 234 238 242 249 253 252 255 263 268 270 270 272 272 266 257 253 253 256 256 257 261 267 274 282 289 295 300 305 309 315 316 312 302 284 267 256 250 239 237 252 260 255 246 237 238 243 247 245 245 254 264 289 312 321 330 341 348
253 252 245 235 227 230 231 220 216 220 223 227 231 226 220 223 229 236 243 245 245 243 249 258 252 243 240 236 236 238 240 244 251 252 251 256 264 269 271 271 274 275 271 261 254 253 253 254 258 264 270 277 283 287 292 295 300 308 312 311 306 291 273 257 246 228 228 246 258 262 260 252 244 240 244 243 239 247 252 267 290 306 318 329 341
241 245 247 238 225 224 228 227 225 226 228 231 237 236 228 228 232 234 237 242 245 242 245 249 249 252 249 239 237 240 241 241 245 250 249 251 256 262 269 271 273 275 275 271 263 256 254 255 257 263 269 273 279 283 287 289 293 299 304 306 302 294 287 267 245 221 215 234 249 256 261 260 253 244 242 240 235 242 246 256 272 287 305 315 329
234 232 235 230 222 220 220 225 227 227 231 235 240 243 237 236 239 241 242 245 247 246 247 248 247 250 249 239 236 240 243 242 246 252 252 251 253 257 263 267 271 272 272 273 271 265 259 258 260 264 269 274 278 280 284 287 288 289 294 300 297 287 288 281 255 225 212 223 240 253 257 256 257 254 248 243 236 239 242 247 262 274 289 302 315
216 221 224 216 204 208 215 222 225 225 226 229 234 239 240 238 241 246 249 251 252 251 252 251 249 250 246 238 231 236 246 249 253 257 254 252 255 258 259 262 266 269 272 274 273 271 267 264 265 268 272 276 279 281 283 285 285 284 286 294 295 282 275 286 279 234 216 221 231 244 252 250 251 255 254 249 240 236 240 243 251 265 275 287 303
87 98 116 133 150 174 198 211 221 225 227 230 234 241 246 244 239 241 245 245 245 251 255 252 249 250 251 247 240 240 250 257 259 261 259 255 255 259 261 262 263 265 268 271 272 272 270 270 271 273 276 280 282 283 284 284 283 283 285 290 294 286 274 278 293 255 223 224 227 235 247 249 247 249 251 253 247 236 237 242 244 256 266 274 291
86 88 91 94 104 121 148 173 196 210 220 230 237 243 250 251 249 247 248 246 241 245 254 254 248 249 254 258 253 244 244 254 260 262 266 263 256 254 259 265 265 264 265 267 270 270 270 271 273 275 278 281 284 286 286 286 284 283 284 288 291 288 279 275 285 279 240 232 231 232 243 249 247 244 244 249 251 241 235 241 243 248 257 265 279
88 91 92 92 94 98 108 126 148 179 206 225 235 244 248 252 255 254 255 254 249 249 253 255 257 258 257 265 264 249 245 252 259 258 258 264 262 252 253 264 268 270 270 270 270 269 268 269 270 273 277 279 281 285 287 287 286 285 284 287 289 285 279 274 274 277 263 242 237 235 241 249 246 242 242 245 249 246 238 238 242 245 250 258 269
95 95 95 95 94 93 93 98 105 117 139 199 246 259 259 260 259 258 259 260 257 257 258 255 257 267 270 270 271 260 254 256 262 264 262 267 271 265 262 267 269 269 272 275 276 272 267 266 267 269 273 276 277 280 285 287 288 288 287 287 289 287 279 271 266 268 268 251 243 240 241 247 245 239 239 241 244 245 239 238 240 242 245 251 260
111 106 103 100 97 94 91 93 97 100 108 117 114 284 281 278 268 264 263 264 264 264 265 263 259 262 267 268 270 270 270 267 267 271 271 272 274 272 270 271 271 269 266 270 276 277 271 264 264 266 267 271 275 278 282 285 287 289 290 289 289 288 282 273 265 262 264 255 248 245 243 246 246 241 235 231 237 242 239 237 239 239 241 245 251
132 128 120 111 103 96 90 91 92 85 84 85 354 290 287 282 274 271 266 263 263 262 264 265 264 264 263 262 263 266 273 274 273 275 276 276 279 280 279 276 277 274 267 265 267 271 270 263 261 265 268 272 277 280 281 283 285 287 291 292 290 287 282 276 269 262 261 257 251 248 247 247 248 247 239 226 228 238 238 235 237 237 238 241 244
159 147 140 134 122 105 96 93 92 83 50 18 6 351 330 313 295 282 273 266 262 260 260 260 262 263 262 260 258 257 256 260 267 273 274 275 279 283 284 283 284 279 274 273 267 260 258 257 260 265 269 274 278 280 280 280 281 284 288 293 294 291 283 277 273 266 260 258 252 247 248 249 247 248 245 235 229 234 235 234 235 235 234 238 242
195 172 162 160 159 138 85 61 53 42 33 26 15 7 356 346 333 311 290 276 268 263 261 261 261 261 260 259 257 255 253 254 260 266 269 272 277 284 287 289 290 286 282 282 277 266 253 248 255 262 262 265 271 276 279 278 278 278 282 290 296 294 285 277 273 268 261 257 252 246 246 248 247 247 248 244 237 234 233 233 235 234 232 236 242
222 205 194 184 191 263 10 16 16 11 8 4 357 357 356 353 349 340 320 294 278 269 264 262 262 262 262 260 258 256 255 255 257 261 266 272 277 285 289 289 289 288 285 283 283 279 264 254 258 263 263 264 267 271 272 273 274 274 277 284 291 292 286 277 271 267 261 256 252 249 245 244 245 248 249 245 240 237 234 233 234 235 234 237 243
243 235 228 224 256 319 351 353 352 354 351 346 345 347 351 352 352 348 339 322 297 279 270 265 262 262 263 262 261 259 257 257 258 260 263 267 272 277 283 290 291 287 283 284 285 284 277 270 268 268 268 269 270 270 269 269 270 271 273 277 281 285 284 275 266 263 260 255 251 249 248 244 242 246 248 244 241 240 238 233 232 234 236 238 243
259 258 261 273 298 320 330 331 330 331 332 336 339 342 344 346 347 345 341 334 320 299 281 272 267 264 263 262 262 261 259 260 260 261 262 263 266 269 274 285 293 291 288 287 286 282 280 280 279 275 272 273 275 276 275 273 271 269 270 272 272 275 279 272 261 259 259 256 251 248 251 249 244 244 246 245 242 239 239 235 231 231 236 239 241
262 266 272 286 302 314 318 318 319 318 323 332 337 340 340 339 340 340 337 332 326 317 302 285 274 269 266 264 264 263 262 261 260 261 261 261 262 265 268 272 280 289 293 291 287 284 281 282 283 282 280 281 282 282 283 282 280 275 269 268 268 269 272 266 254 254 257 257 253 249 251 252 249 246 246 245 244 243 243 241 235 231 235 240 241
259 262 268 281 293 303 308 309 309 309 317 330 336 337 337 334 333 332 330 327 321 314 309 302 290 278 271 267 264 264 264 263 262 261 260 261 260 260 263 265 269 275 283 287 288 285 284 283 282 283 285 289 290 287 286 285 281 274 268 267 265 263 264 258 249 249 254 257 255 252 251 252 251 249 248 246 245 248 249 245 239 234 233 237 240
251 255 262 273 282 290 295 296 295 298 310 324 331 332 331 328 325 323 321 319 315 310 304 300 296 289 280 272 267 265 265 264 263 263 261 261 260 259 259 259 261 265 269 277 281 280 280 283 283 283 284 286 287 285 284 281 276 270 268 270 268 263 260 255 248 247 251 253 254 252 250 250 251 252 252 250 246 248 252 249 244 237 233 234 237
245 248 254 262 271 278 282 285 285 286 299 317 324 326 325 323 320 319 316 313 311 308 305 301 296 291 285 279 273 269 267 266 265 264 263 262 260 259 259 258 257 259 263 268 274 275 274 277 282 284 285 285 282 280 281 281 278 272 269 270 269 265 261 256 250 247 248 251 252 252 249 247 251 253 254 254 250 248 250 250 246 240 233 230 233
243 244 247 252 261 268 273 278 278 279 291 314 322 321 322 321 320 318 315 312 310 308 306 304 300 294 286 281 278 274 271 269 268 268 267 265 263 261 258 259 258 258 261 265 271 276 274 273 278 283 289 291 284 279 280 281 279 276 274 272 269 265 262 260 256 251 249 249 249 250 250 247 248 252 253 254 252 250 249 249 247 240 232 229 231
239 241 244 249 255 261 267 272 272 275 292 313 319 319 320 320 320 318 315 312 310 308 306 304 302 299 291 283 279 277 275 271 269 268 269 269 269 266 262 259 258 257 259 263 268 274 274 271 274 278 285 293 290 281 278 278 277 278 277 274 269 266 263 263 265 263 258 253 250 250 254 254 249 248 251 253 251 250 250 250 249 241 231 228 229
236 238 242 247 251 256 262 266 267 277 298 311 315 315 317 318 317 314 311 309 307 306 305 304 303 301 297 290 282 279 278 276 272 269 268 268 268 270 268 265 261 257 257 261 265 270 273 272 272 274 277 283 290 288 282 277 277 278 277 272 267 265 263 262 264 268 264 259 259 260 261 261 256 247 248 252 251 249 249 250 251 242 231 229 228
235 237 239 242 247 254 260 264 271 287 301 307 309 310 312 314 313 309 307 306 304 303 302 302 302 302 300 297 290 282 277 275 275 273 271 269 267 268 269 269 268 263 257 258 262 265 270 271 270 272 274 276 282 288 289 283 277 275 273 270 266 263 262 262 261 261 257 255 259 262 262 264 265 256 250 251 250 248 248 249 250 242 231 230 230
236 237 238 240 246 254 260 266 280 294 299 300 302 305 308 309 307 306 306 305 304 303 301 300 300 301 300 300 298 292 286 280 276 274 274 274 271 269 269 270 271 270 263 259 260 261 264 266 266 268 271 275 277 278 284 288 280 270 268 268 266 265 263 262 260 257 253 251 255 259 260 261 263 259 253 253 252 247 245 247 250 244 234 232 231
236 238 239 242 248 254 259 270 286 292 293 295 298 302 303 302 303 304 305 305 304 303 301 299 298 297 296 297 297 297 295 291 285 280 279 280 280 277 275 273 272 273 269 263 260 260 260 261 263 265 268 273 276 274 276 284 283 273 269 268 266 267 268 264 260 256 252 252 254 256 257 256 258 257 253 253 253 248 242 243 247 245 238 236 235
237 241 242 246 249 254 263 275 283 285 288 293 297 299 300 301 305 306 305 305 304 302 301 300 297 295 291 290 289 289 289 289 288 286 283 283 285 284 282 281 278 278 276 270 265 262 261 260 259 261 265 268 272 272 273 279 283 278 275 271 265 266 271 271 266 261 257 256 255 254 254 254 257 257 253 250 251 249 243 241 244 244 239 237 238
237 241 243 246 250 255 266 274 278 282 287 291 294 297 301 306 308 308 306 305 303 301 300 298 296 293 290 288 287 286 285 283 282 281 280 279 280 280 280 280 280 280 279 277 273 269 265 263 259 258 260 263 265 267 268 272 277 279 282 281 273 269 273 275 274 270 266 264 261 258 257 255 256 257 255 251 249 246 243 241 242 243 239 237 238
232 236 239 243 249 255 263 270 276 281 286 290 296 300 303 305 305 304 304 303 301 300 298 297 294 291 289 288 287 286 285 283 280 278 275 273 273 273 274 276 277 279 279 278 277 275 272 268 262 258 258 260 261 263 264 265 268 273 280 286 284 278 274 272 274 276 273 270 265 261 259 258 257 258 258 255 252 248 243 240 240 241 239 237 237
224 228 232 238 244 252 261 269 275 281 288 294 298 299 300 301 301 301 300 299 299 298 297 296 293 290 288 288 287 286 285 284 282 280 276 272 270 270 271 271 273 275 276 277 277 276 276 273 268 263 260 259 258 259 261 261 262 266 272 278 284 285 277 270 272 277 275 271 269 265 262 261 259 259 259 258 257 252 246 241 240 241 240 237 237
216 221 227 235 243 252 262 271 279 286 293 297 298 298 299 299 300 299 298 298 297 296 296 295 293 291 290 289 288 287 287 286 285 284 281 276 272 270 269 269 268 268 269 272 274 274 275 274 271 267 263 261 259 258 259 260 259 261 265 270 276 281 280 278 278 280 277 276 276 273 269 266 263 262 261 260 258 257 253 247 244 243 242 240 240
211 218 226 237 247 259 271 280 288 292 296 298 299 301 302 303 303 301 300 298 296 295 295 294 294 294 293 292 292 290 289 289 289 288 287 283 278 273 270 268 267 265 264 264 266 269 271 272 271 268 264 262 260 259 259 260 260 260 261 263 266 271 275 278 279 283 287 287 284 280 277 271 267 266 264 263 261 260 259 254 248 244 243 242 241
213 221 229 241 255 271 283 289 292 294 297 300 303 308 311 311 311 308 304 302 299 298 296 295 295 295 294 294 294 292 291 291 290 290 289 287 284 280 275 271 267 266 264 262 260 261 264 267 268 265 263 262 261 260 259 261 262 262 261 260 261 263 266 269 274 282 288 288 286 284 280 276 273 270 269 268 266 264 263 260 254 249 246 242 242
220 227 235 250 266 281 288 291 293 297 302 306 311 316 319 320 318 314 309 305 302 299 298 296 294 293 293 292 291 290 290 289 288 289 288 287 286 283 281 279 274 270 268 265 261 258 257 259 263 263 261 261 261 260 261 264 266 266 264 262 262 263 264 266 269 274 278 280 282 280 278 278 278 276 274 273 271 268 266 264 260 255 251 247 246
225 233 245 260 275 285 288 290 294 301 308 313 316 319 323 326 326 322 318 312 307 303 300 297 295 292 291 289 288 287 286 285 286 286 286 286 285 284 283 283 282 279 275 272 269 265 259 256 258 261 262 261 260 261 261 262 264 264 263 262 263 264 264 264 263 264 265 269 273 273 274 277 280 280 280 279 275 271 269 266 264 260 255 252 251
227 238 253 268 279 284 286 291 301 311 317 319 319 321 326 330 330 328 326 321 316 312 308 304 300 296 293 290 287 286 284 284 283 283 283 282 281 282 282 282 283 283 281 278 277 273 266 260 257 256 257 258 257 258 258 256 254 255 256 258 258 258 260 260 259 258 258 260 264 268 271 275 278 279 280 279 277 273 271 270 269 266 263 258 253
231 246 260 270 276 280 286 297 310 320 323 322 322 323 326 330 331 330 329 326 322 318 315 311 307 302 298 293 290 287 285 284 283 281 280 279 278 278 279 280 281 282 281 282 281 278 274 269 262 257 255 253 252 250 250 249 248 248 251 254 254 253 254 255 256 256 256 256 258 262 267 270 272 274 275 275 276 275 273 273 272 270 268 265 258
240 252 260 266 272 281 293 303 311 318 321 322 323 322 324 327 328 328 328 326 323 321 318 314 310 306 302 297 292 288 286 284 282 279 276 275 274 274 275 276 278 278 278 281 282 281 279 275 269 265 261 257 254 250 247 245 244 244 245 249 251 253 253 252 254 257 258 256 255 257 261 264 267 269 269 270 272 272 272 274 273 270 268 266 261
247 252 258 266 276 288 298 304 310 315 319 321 322 322 322 324 324 325 326 324 323 321 318 314 311 307 304 300 295 290 287 285 283 280 277 273 270 270 271 272 273 274 276 278 280 281 282 279 274 270 268 265 262 258 253 249 245 243 241 242 245 249 252 253 253 254 255 255 253 253 255 259 264 266 266 265 267 270 273 273 273 271 268 264 260